Weather History for Berlin, NH

Change the Weather History Date:

Thursday, January 17, 2013

  Actual Average Record
Temperature  
Mean Temperature 20 °F -  
Max Temperature 32 °F 19 °F 39 °F (2014)
Min Temperature 7 °F 0 °F -31 °F (2009)
Degree Days  
Heating Degree Days 46    
Moisture  
Dew Point 13 °F    
Average Humidity 69    
Maximum Humidity 93    
Minimum Humidity 39    
Precipitation  
Precipitation 0.00 in - - ()
Sea Level Pressure  
Sea Level Pressure 29.86 in    
Wind  
Wind Speed 3 mph (WNW)    
Max Wind Speed 18 mph    
Max Gust Speed 32 mph    
Visibility 7 miles    
Events Snow    
Averages and records for this station are not official NWS values.
T = Trace of Precipitation, MM = Missing Value Source: NWS Daily Summary

Daily Weather History Graph

Daily Weather History Graph

Search for Another Location

Airport:

Trip Planner

Search our weather history database for the weather conditions in past years. The results will help you decide how hot, cold, wet, or windy it might be!

Date:

Astronomy

Jan. 17, 2013 Rise Set
Actual Time 7:16 AM EST 4:33 PM EST
Civil Twilight 6:44 AM EST 5:05 PM EST
Nautical Twilight 6:08 AM EST 5:41 PM EST
Astronomical Twilight 5:33 AM EST 6:16 PM EST
Moon 10:04 AM EST (1/17) 11:41 PM EST (1/17)
Length of Visible Light 10h 21m
Length of Day
9h 16m
Waxing Crescent, 37% of the Moon is Illuminated
Jan 17
Waxing Crescent
Jan 18
First Quarter
Jan 26
Full
Feb 3
Last Quarter
Feb 10
New

Hourly Weather History & Observations

Time (EST) Temp. Windchill Dew Point Humidity Pressure Visibility Wind Dir Wind Speed Gust Speed Precip Events Conditions
12:05 AM 21.2 °F - 19.4 °F 93% 29.70 in 1.8 mi Calm Calm - N/A   Mostly Cloudy
12:08 AM 21.2 °F - 19.4 °F 93% 29.70 in 0.8 mi Calm Calm - N/A   Mostly Cloudy
12:18 AM 19.4 °F - 17.6 °F 93% 29.70 in 1.8 mi Calm Calm - N/A   Mostly Cloudy
12:21 AM 21.2 °F - 17.6 °F 86% 29.70 in 3.0 mi Calm Calm - N/A   Mostly Cloudy
12:52 AM 23.0 °F - 21.0 °F 92% 29.76 in 9.0 mi Calm Calm - N/A   Overcast
1:52 AM 23.0 °F - 21.0 °F 92% 29.76 in 10.0 mi Calm Calm - N/A   Overcast
2:14 AM 21.2 °F - 19.4 °F 93% 29.71 in 8.0 mi Calm Calm - N/A   Scattered Clouds
2:52 AM 18.0 °F - 16.0 °F 92% 29.77 in 9.0 mi Calm Calm - N/A   Scattered Clouds
3:52 AM 18.0 °F - 15.1 °F 88% 29.75 in 8.0 mi Calm Calm - N/A   Overcast
4:52 AM 21.0 °F - 18.0 °F 88% 29.74 in 9.0 mi Calm Calm - N/A   Overcast
5:52 AM 26.1 °F - 21.9 °F 84% 29.75 in 10.0 mi Calm Calm - N/A   Overcast
6:00 AM 26.6 °F - 21.2 °F 80% 29.71 in 10.0 mi Calm Calm - N/A   Overcast
6:52 AM 30.0 °F 25.2 °F 23.0 °F 75% 29.77 in 10.0 mi Variable 4.6 mph - N/A   Overcast
7:33 AM 28.4 °F - 24.8 °F 86% 29.74 in 10.0 mi Calm Calm - N/A   Overcast
7:52 AM 30.9 °F 27.5 °F 23.0 °F 72% 29.79 in 10.0 mi WSW 3.5 mph - N/A   Overcast
8:42 AM 30.2 °F 26.7 °F 24.8 °F 80% 29.77 in 2.0 mi Variable 3.5 mph - 0.00 in Snow Light Snow
8:52 AM 30.9 °F 27.5 °F 25.0 °F 79% 29.82 in 2.5 mi Variable 3.5 mph - 0.00 in Snow Light Snow
9:06 AM 30.2 °F 23.4 °F 24.8 °F 80% 29.78 in 3.0 mi WSW 6.9 mph - 0.00 in Snow Light Snow
9:52 AM 32.0 °F 27.5 °F 25.0 °F 75% 29.83 in 9.0 mi Variable 4.6 mph - 0.00 in   Overcast
10:02 AM 32.0 °F 23.6 °F 26.6 °F 80% 29.80 in 1.8 mi West 10.4 mph 21.9 mph 0.00 in Snow Light Snow
10:04 AM 32.0 °F 22.1 °F 26.6 °F 80% 29.80 in 0.8 mi West 13.8 mph 23.0 mph 0.00 in Snow Light Snow
10:23 AM 30.2 °F 20.8 °F 21.2 °F 69% 29.82 in 1.5 mi WNW 11.5 mph 23.0 mph 0.00 in Snow Light Snow
10:27 AM 30.2 °F 22.6 °F 21.2 °F 69% 29.83 in 3.0 mi WNW 8.1 mph 23.0 mph 0.00 in Snow Light Snow
10:30 AM 30.2 °F 18.9 °F 19.4 °F 64% 29.83 in 2.0 mi WNW 16.1 mph 25.3 mph 0.00 in Snow Light Snow
10:33 AM 28.4 °F 15.8 °F 19.4 °F 69% 29.83 in 1.2 mi WNW 18.4 mph 32.2 mph 0.00 in Snow Light Snow
10:42 AM 28.4 °F 18.5 °F 17.6 °F 64% 29.83 in 1.2 mi WNW 11.5 mph 32.2 mph 0.00 in Snow Light Snow
10:45 AM 28.4 °F 19.7 °F 17.6 °F 64% 29.84 in 2.0 mi WNW 9.2 mph 23.0 mph 0.00 in Snow Light Snow
10:49 AM 28.4 °F 19.1 °F 17.6 °F 64% 29.84 in 3.0 mi WNW 10.4 mph 23.0 mph 0.00 in Snow Light Snow
10:52 AM 28.0 °F 19.3 °F 17.1 °F 63% 29.89 in 6.0 mi WNW 9.2 mph 21.9 mph 0.00 in Snow Light Snow
11:52 AM 26.1 °F 16.2 °F 9.0 °F 49% 29.93 in 10.0 mi WNW 10.4 mph 18.4 mph 0.00 in   Overcast
12:52 PM 23.0 °F 13.1 °F 3.0 °F 42% 29.96 in 10.0 mi NW 9.2 mph 18.4 mph N/A   Mostly Cloudy
1:52 PM 21.9 °F 14.5 °F 1.9 °F 42% 29.97 in 9.0 mi NNW 5.8 mph 20.7 mph N/A   Clear
2:52 PM 19.9 °F 10.1 °F -0.9 °F 40% 30.01 in 10.0 mi NW 8.1 mph 19.6 mph 0.00 in   Clear
3:52 PM 17.1 °F 6.6 °F -4.0 °F 39% 30.04 in 10.0 mi West 8.1 mph - N/A   Clear
4:52 PM 14.0 °F 3.9 °F -6.0 °F 41% 30.07 in 10.0 mi West 6.9 mph - N/A   Clear
5:52 PM 10.9 °F 2.9 °F -6.0 °F 47% 30.10 in 10.0 mi West 4.6 mph - N/A   Clear
6:52 PM 10.0 °F 3.6 °F -7.1 °F 46% 30.11 in 10.0 mi Variable 3.5 mph - N/A   Clear
7:52 PM 9.0 °F - -5.1 °F 53% 30.12 in 10.0 mi Calm Calm - N/A   Clear
8:52 PM 9.0 °F 2.4 °F -6.0 °F 51% 30.13 in 10.0 mi WNW 3.5 mph - N/A   Clear
9:52 PM 7.0 °F -1.7 °F -5.1 °F 58% 30.12 in 10.0 mi NNW 4.6 mph - N/A   Clear
10:52 PM 7.0 °F 0.1 °F -6.0 °F 55% 30.10 in 10.0 mi North 3.5 mph - N/A   Clear
11:52 PM 7.0 °F 0.1 °F -11.0 °F 44% 30.11 in 10.0 mi Variable 3.5 mph - N/A   Clear